Погода в Отаре

Погода в Отаре : погода сейчас, прогноз погоды и архив. Всё, что Вы хотите узнать о погоде в Отаре!

Поиск расширенной информации на нашем сайте:

Другие новости

Новости СМИ2

Главная страница сайта

Новости сайта

03.07.2017

Напоминаем, что на нашем специализированном сайте Метеоцентр.Азия вы можете получить высокодетализированные автоматические прогнозы погоды по пунктам России, СНГ и мира в авиационном формате (включающие направление и скорость ветра, видимость, явления погоды, количество и форму облачности, нижнюю и верхнюю границу облачности).


Погода в Отаре - сегодня

Время (UTC), дата Ветер
(°,м/с) 
Видим.   Явления Облачность Т
(°С)
Тd
(°С)
f(%) Тe
(°С)
Pmin
(гПа)
dP
(гПа)
Po
(мм)
O2
(г/м3)
Тmin Tmax R s Состояние
почвы
03 22.11.17 тихо ()   20000 м    ясно 
-9.4 -11.8 83 -9  1033.5  -1.1  705  295           
06 22.11.17 тихо ()   20000 м    ясно 
+2.5 -4.5 60 +3  1029.1  -0.2  705  282  -9.9         
09 22.11.17 070 (В) 20000 м    ясно 
+6.2 -9.2 32 +5  1026.4  -1.3  704  278           
12 22.11.17 тихо ()   20000 м    ясно 
+1.2 -5.9 59 +1  1027.3  -0.7  703  283           
15 22.11.17 тихо ()   н/о    ясно 
-2.2 -8.5 62 -2  1027.6  -0.9  703  286    +7       
18 22.11.17 тихо ()   н/о    ясно 
-7 -11.3 71 -7  1028.2  -1  702  291    +7       
21 22.11.17 тихо ()   н/о    ясно 
-8.2 -10.9 81 -8  1027.2  -1.2  701  292           
00 23.11.17 тихо () {08}  н/о    ясно 
-10 -10.6 95 -10  1027.3  -0.5  700  293           
03 23.11.17 тихо ()   20000 м    ясно 
-9.2 -12.2 79 -9  1027.1  701  293           
06 23.11.17 160 (Ю) 20000 м    ясно 
+4.4 -4.9 51 +5  1021.1  -1.1  700  278  -10.2         
09 23.11.17 110 (В) 20000 м    ясно 
+8.5 -9 28 +7  1018.6  -1.1  699  274           
12 23.11.17 тихо ()   20000 м    ясно 
+2.6 -6.4 51 +3  1020.6  0.1  699  280           
15 23.11.17 тихо ()   н/о    ясно 
-4.3 -5.5 91 -4  1023.4  0.4  699  287    +9.1       
18 23.11.17 тихо ()   н/о    ясно 
-7.4 -11.3 74 -7  1024.4  -0.1  699  291    +9.1       
21 23.11.17 тихо ()   н/о    ясно 
-8.4 -11.2 80 -8  1024.5  -0.3  699  292           
00 24.11.17 тихо ()   н/о    ясно 
-10.4 -11 95 -10  1024.8  -0.4  699  294           
03 24.11.17 тихо ()   20000 м    8/0 средняя, верхняя 
[Ac trans|Ci sp]
-8.8 -11.6 80 -9  1024.8  0.5  699  292           
06 24.11.17 тихо ()   20000 м    8/0 верхняя 
[Ci fib]
+5.2 -5.7 45 +5  1019.9  0.1  699  277  -10.6         
09 24.11.17 090 (В) 20000 м    6/0 верхняя 
[Ci fib]
+8.8 -9 27 +8  1018  -0.7  699  273           
12 24.11.17 тихо ()   20000 м    3/0 верхняя 
[Ci fib]
+2.6 -6.8 50 +3  1020.2  0.1  699  279           
15 24.11.17 тихо ()   н/о    ясно 
-3.8 -11 57 -4  1022.8  0.4  699  287    +9.7       
18 24.11.17 тихо ()   н/о    ясно 
-6.6 -10.3 75 -7  1023  -0.7  698  289    +9.7       
21 24.11.17 тихо ()   н/о    ясно 
-3 -10.7 55 -3  1024.5  0.9  699  286           
00 25.11.17 тихо ()   н/о    ясно 
-7.8 -10.5 81 -8  1023  -1.3  698  290           
03 25.11.17 тихо ()   20000 м    8/4 2000 м средняя, верхняя 
[Ac trans|Ci fib]
-4.6 -8.5 74 -5  1021.9  698  287           
Время (UTC), дата Ветер
(°,м/с) 
Видим.   Явления Облачность Т
(°С)
Тd
(°С)
f(%) Тe
(°С)
Pmin
(гПа)
dP
(гПа)
Po
(мм)
O2
(г/м3)
Тmin Tmax R s Состояние
почвы

Для получения пояснительной информации подведите курсор к названию столбца.

ПОГОДА в Отаре - архив

Всё, что Вы хотите узнать о погоде в Отаре - удобно и подробно!

Выберите нужную дату (начиная с 1 января 2015* года) и нажмите кнопку "Найти".
Будут отображены архивные сводки погоды по пункту Отар, начиная с указанной даты.


Отображать данные в формате CSV (для использования в таблицах Excel)


Внимание! Наш архив погоды предназначен исключительно для личного некоммерческого использования в познавательных целях. Если Вам необходимы официальные справки о состоянии погоды (для производственных, юридических, коммерческих и т.п. целей), обращайтесь в органы Росгидромета.

*Примечание: данная дата относится к архиву по метеостанциям СССР (Россия, СНГ, Балтия).
Архив по метеостанциям Зарубежной Европы и Азии (кроме Китая) хранится 10 дней, по другим регионам земного шара (Китай, Африка, Америка, Австралия, Океания) - 1 день.

Отар - район местоположения метеостанции


Название, широта, долгота, высота метеостанции:
Отар 43.5°ш. 75.2°д. 743 м над ур. моря [Казахстан]

Дополнительная информация

В oтличие oт бoльшинства пoгoдных сайтoв мы публикуем пoдрoбную метеoинфoрмацию в детальнoм прoфессиoнальнoм фoрмате.

Характеристики температуры и влажнoсти вoздуха измеряются на высoте 2 м в тени вдали oт зданий и деревьев.
Скoрoсть ветра измеряется на высoте 10 м (на урoвне рoста челoвека скoрoсть ветра ниже в 1.5-2 раза). Если метеoстанция нахoдится в гoрoде или в лесу, тo скoрoсть ветра занижена на 2-4 м/с пo сравнению с oткрытым местoм. Скoрoсть ветра над акватoриями крупных рек и oзёр, а также на вершинах хoлмoв на 2-5 м/с выше, чем в oбычных услoвиях.
Атмoсфернoе давление в разных тoчках местнoсти мoжет значительнo oтличаться oт давления на метеoстанции, в зависимoсти oт услoвий рельефа (при пoдъёме на 10 м давление пoнижается примернo на 1 мм рт.ст.).